Wilmington, NC

8:47 PM EDT on April 21, 2018 (GMT -0400)
Wilmington International

Weather History for KILM - March, 2015

Change the Weather History Date:

Thursday, March 5, 2015

  Actual Average Record
Temperature  
Mean Temperature 56 °F 52 °F  
Max Temperature 76 °F 64 °F 84 °F (1955)
Min Temperature 36 °F 41 °F 20 °F (1873)
Degree Days  
Heating Degree Days 9 13  
Month to date heating degree days 64 67  
Since 1 July heating degree days 2247 1996  
Cooling Degree Days 0 0  
Month to date cooling degree days 0 0  
Year to date cooling degree days 6 5  
Growing Degree Days 6 (Base 50)    
Moisture  
Dew Point 51 °F    
Average Humidity 79    
Maximum Humidity 93    
Minimum Humidity 64    
Precipitation  
Precipitation 0.41 in 0.13 in 1.37 in (1920)
Month to date precipitation 0.61 0.68  
Year to date precipitation 9.93 8.06  
Snow  
Snow 0.00 in 0.00 in - ()
Month to date snowfall 0.0 0.0  
Since 1 July snowfall 0.3 1.5  
Snow Depth 0.00 in    
Sea Level Pressure  
Sea Level Pressure 30.04 in    
Wind  
Wind Speed 17 mph (WNW)    
Max Wind Speed 35 mph    
Max Gust Speed 52 mph    
Visibility 9 miles    
Events Rain    
T = Trace of Precipitation, MM = Missing Value Source: NWS Daily Summary

Daily Weather History Graph

Daily Weather History Graph

Search for Another Location

Airport or City:

Astronomy

Mar. 05, 2015 Rise Set
Actual Time 6:35 AM EST 6:10 PM EST
Civil Twilight 6:10 AM EST 6:36 PM EST
Nautical Twilight 5:41 AM EST 7:05 PM EST
Astronomical Twilight 5:12 AM EST 7:34 PM EST
Moon 6:20 PM EST (3/5) 6:20 AM EST (3/5)
Length of Visible Light 12h 25m
Length of Day
11h 35m
Full, 100% of the Moon is Illuminated
Mar 5
Full
Mar 5
Full
Mar 13
Last Quarter
Mar 20
New
Mar 27
First Quarter

Hourly Weather History & Observations

Time (EST) Temp. Windchill Dew Point Humidity Pressure Visibility Wind Dir Wind Speed Gust Speed Precip Events Conditions
12:37 AM 68.0 °F - 64.9 °F 90% 29.99 in 10.0 mi SW 12.7 mph 23.0 mph N/A   Overcast
12:53 AM 68.0 °F - 64.9 °F 90% 29.99 in 10.0 mi SW 16.1 mph - N/A   Overcast
1:53 AM 69.1 °F - 66.0 °F 90% 29.98 in 10.0 mi SW 18.4 mph 26.5 mph N/A   Overcast
2:53 AM 68.0 °F - 64.9 °F 90% 29.96 in 10.0 mi SW 21.9 mph 34.5 mph N/A   Overcast
3:37 AM 66.9 °F - 63.0 °F 87% 29.96 in 10.0 mi SSW 13.8 mph 25.3 mph N/A   Scattered Clouds
3:53 AM 66.0 °F - 63.0 °F 90% 29.96 in 10.0 mi SSW 16.1 mph 24.2 mph N/A   Partly Cloudy
4:53 AM 64.0 °F - 61.0 °F 90% 29.97 in 10.0 mi SSW 12.7 mph - N/A   Clear
5:53 AM 63.0 °F - 60.1 °F 90% 29.98 in 10.0 mi SSW 10.4 mph - N/A   Clear
6:53 AM 62.1 °F - 60.1 °F 93% 29.98 in 10.0 mi SSW 10.4 mph - N/A   Clear
7:40 AM 64.0 °F - 61.0 °F 90% 29.98 in 10.0 mi SSW 10.4 mph - N/A   Partly Cloudy
7:53 AM 64.9 °F - 61.0 °F 87% 29.97 in 10.0 mi SSW 15.0 mph 23.0 mph N/A   Clear
8:17 AM 66.0 °F - 62.1 °F 87% 29.97 in 10.0 mi SSW 15.0 mph - N/A   Partly Cloudy
8:53 AM 69.1 °F - 63.0 °F 81% 29.98 in 10.0 mi SSW 17.3 mph - N/A   Partly Cloudy
9:53 AM 71.1 °F - 63.0 °F 75% 29.98 in 10.0 mi SW 18.4 mph 28.8 mph N/A   Clear
10:53 AM 72.0 °F - 62.1 °F 71% 29.97 in 10.0 mi SW 16.1 mph 24.2 mph N/A   Clear
11:53 AM 73.0 °F - 63.0 °F 71% 29.97 in 10.0 mi SW 16.1 mph 32.2 mph N/A   Clear
12:53 PM 73.9 °F - 63.0 °F 68% 29.93 in 10.0 mi SSW 16.1 mph 26.5 mph N/A   Clear
1:53 PM 75.9 °F - 63.0 °F 64% 29.90 in 10.0 mi SSW 20.7 mph 31.1 mph N/A   Clear
2:53 PM 75.0 °F - 63.0 °F 66% 29.88 in 10.0 mi SSW 21.9 mph 35.7 mph N/A   Clear
3:53 PM 73.0 °F - 62.1 °F 68% 29.88 in 10.0 mi SSW 19.6 mph 27.6 mph N/A   Clear
4:46 PM 57.9 °F - 50.0 °F 75% 29.96 in 10.0 mi North 32.2 mph 51.8 mph N/A   Overcast
4:51 PM 53.6 °F - 44.6 °F 72% 29.98 in 10.0 mi North 27.6 mph 40.3 mph N/A   Overcast
4:53 PM 52.0 °F - 45.0 °F 77% 29.99 in 10.0 mi North 29.9 mph 40.3 mph N/A   Overcast
5:00 PM 50.0 °F - 43.0 °F 77% 30.01 in 10.0 mi NNW 21.9 mph 39.1 mph N/A   Overcast
5:17 PM 46.9 °F - 41.0 °F 80% 30.06 in 10.0 mi NNW 24.2 mph 33.4 mph 0.00 in Rain Light Rain
5:53 PM 42.1 °F 33.3 °F 37.0 °F 82% 30.06 in 10.0 mi North 19.6 mph 29.9 mph 0.00 in   Overcast
6:20 PM 42.1 °F 34.5 °F 36.0 °F 79% 30.06 in 10.0 mi NE 15.0 mph 25.3 mph N/A   Overcast
6:31 PM 42.8 °F 35.4 °F 35.6 °F 76% 30.05 in 10.0 mi ENE 15.0 mph - N/A   Overcast
6:53 PM 42.1 °F 35.2 °F 37.9 °F 85% 30.03 in 6.0 mi ENE 12.7 mph - 0.00 in Rain Light Rain
7:18 PM 42.1 °F 36.6 °F 39.0 °F 89% 30.09 in 2.5 mi North 9.2 mph - 0.01 in Rain Heavy Rain
7:25 PM 41.0 °F 34.7 °F 39.2 °F 93% 30.10 in 2.5 mi North 10.4 mph - N/A Rain Rain
7:33 PM 41.0 °F 34.7 °F 39.0 °F 93% 30.11 in 3.0 mi North 10.4 mph - 0.06 in Rain Rain
7:41 PM 41.0 °F 35.8 °F 39.0 °F 93% 30.12 in 2.5 mi North 8.1 mph - 0.09 in Rain Heavy Rain
7:44 PM 41.0 °F 35.2 °F 39.0 °F 93% 30.12 in 1.8 mi North 9.2 mph - 0.12 in Rain Heavy Rain
7:53 PM 41.0 °F 34.7 °F 39.0 °F 93% 30.14 in 2.0 mi North 10.4 mph - 0.22 in Rain Heavy Rain
8:11 PM 41.0 °F 35.8 °F 39.0 °F 93% 30.17 in 4.0 mi North 8.1 mph - 0.09 in Rain Rain
8:53 PM 41.0 °F 33.9 °F 39.0 °F 93% 30.16 in 8.0 mi North 12.7 mph - 0.13 in Rain Light Rain
9:14 PM 41.0 °F 34.7 °F 39.0 °F 93% 30.17 in 10.0 mi NNE 10.4 mph - 0.02 in Rain Light Rain
9:48 PM 41.0 °F 33.5 °F 37.4 °F 87% 30.23 in 10.0 mi NNW 13.8 mph - 0.06 in Rain Light Rain
9:53 PM 39.9 °F 31.1 °F 37.9 °F 93% 30.24 in 10.0 mi North 17.3 mph 23.0 mph 0.06 in Rain Light Rain
10:53 PM 37.9 °F 28.2 °F 36.0 °F 93% 30.26 in 10.0 mi North 18.4 mph 25.3 mph 0.00 in Rain Light Rain
11:38 PM 37.0 °F 27.0 °F 34.0 °F 89% 30.27 in 10.0 mi North 18.4 mph 28.8 mph 0.00 in Rain Light Rain
11:53 PM 36.0 °F 25.0 °F 33.1 °F 89% 30.27 in 10.0 mi North 20.7 mph 28.8 mph 0.00 in Rain Light Rain